Regional Weather Roundup
Issued by NWS Portland, ME

Current Version | Previous Version | Text Only | Print | Product List | Glossary Off
Versions: 1 2 3 4 5 6 7 8 9 10 11 12 13 14 15 16 17 18 19 20 21 22 23 24 25 26 27 28 29 30 31 32 33 34 35 36 37 38 39 40 41 42 43 44 45 46 47 48 49 50
000 ASUS41 KGYX 172205 RWRGYX WEATHER ROUNDUP FOR MAINE AND NEW HAMPSHIRE NATIONAL WEATHER SERVICE GRAY ME 600 PM EDT TUE JUL 17 2018 MEZ002-005-006-010-012-015-018-020-021-024-026-027-029-172300- MAINE CITY SKY/WX TMP DP RH WIND PRES REMARKS PORTLAND CLOUDY 71 70 96 S6 29.75F SANFORD RAIN 70 69 97 SW7 29.77S BAR HARBOR CLOUDY 68 68 100 SW10 29.76R WISCASSET CLOUDY 70 70 100 SW6 29.77R ROCKLAND CLOUDY 68 68 100 SW12 29.75R FRYEBURG FAIR 73 73 100 S5 29.76R LEWISTONAUBURN CLOUDY 72 71 97 S5 29.76R FOG AUGUSTA PTSUNNY 72 71 97 SW5 29.75R WATERVILLE PTSUNNY 73 71 93 S5 29.71R BANGOR CLOUDY 72 71 97 S7 29.73F FOG GREENVILLE N/A 69 67 93 VRB3 29.74S MILLINOCKET CLOUDY 71 68 90 CALM 29.74S HOULTON CLOUDY 69 68 96 S6 29.72F PRESQUE ISLE CLOUDY 72 69 90 S6 29.72F FRENCHVILLE CLOUDY 74 66 76 S7 29.69F CARIBOU CLOUDY 72 68 87 S8 29.70F $$ NHZ002-005-008-009-011-012-014-172300- NEW HAMPSHIRE CITY SKY/WX TMP DP RH WIND PRES REMARKS PORTSMOUTH TSTM 69 69 100 S8 29.75F FOG ROCHESTER LGT RAIN 70 70 100 VRB3 29.77R FOG NASHUA RAIN 71 71 100 S5G17 29.78S FOG MANCHESTER TSTM 71 70 96 CALM 29.76R FOG CONCORD LGT RAIN 70 69 97 SE7 29.77R FOG LACONIA CLOUDY 71 69 93 SW7 29.78R PLYMOUTH CLOUDY 72 68 87 CALM 29.75S BERLIN CLOUDY 76 69 79 CALM 29.76R WHITEFIELD CLOUDY 76 68 76 W5 29.76R JAFFREY LGT RAIN 70 70 100 VRB3 29.80R KEENE CLOUDY 70 69 97 CALM 29.79R LEBANON CLOUDY 75 68 78 S5 29.76R MT WASHINGTON FOG 55 55 100 W28 N/A VSB 0 $$ VTZ005-007-008-172300- VERMONT CITY SKY/WX TMP DP RH WIND PRES REMARKS ST JOHNSBURY N/A 70 70 100 MISG 29.75R MONTPELIER PTSUNNY 73 70 90 CALM 29.81R BURLINGTON PTSUNNY 83 65 54 CALM 29.73S $$ MAZ007-012-024-CTZ003-RIZ002-NYZ038-NYZ072-172300- SOUTHERN NEW ENGLAND AND NY CITY SKY/WX TMP DP RH WIND PRES REMARKS BOSTON TSTM 70 68 93 SE8 29.80F FOG NANTUCKET CLOUDY 72 70 93 S16 29.84F PROVIDENCE LGT RAIN 74 68 81 NW13G24 29.82R HARTFORD LGT RAIN 71 70 96 S7 29.80R ALBANY PTSUNNY 77 72 84 S8 29.76S NEW YORK CITY LGT RAIN 75 70 84 S10 29.81R $$ ANZ081-ANZ082-ANZ150-NHZ014-MEZ023>029-172300- COASTAL MARINE OBSERVATIONS STATION/POSITION TIME TEMP WIND PRES WAVE AIR SEA DIR/SP/G HT/PER (UTC) (F) (DEG/KT/KT) (MB) (FT/S) MOUNT DESERT ROC 2200 64 180/ 21/ 22 1007.9F MATINICUS ROCK 2100 63 220/ 19/ 19 1007.1F ISLE OF SHOALS 2100 69 200/ 10/ 10 1008.6F JEFFREYS LEDGE 2136 67 N/A 3/ 5 $$ .............KEY.............. WCI - WIND CHILL TC - TEMPERATURE IN CELSIUS VSB - VISIBILITY IN MILES HX - HEAT INDEX FAIR- INDICATES FEW OR NO CLOUDS BELOW 12,000 FT, WITH NO SIGNIFICANT WEATHER AND/OR OBSTRUCTIONS TO VISIBILITY.

USA.gov is the U.S. government's official web portal to all federal, state and local government web resources and services.